Time,TemperatureF,DewpointF,PressureIn,WindDirection,WindDirectionDegrees,WindSpeedMPH,WindSpeedGustMPH,Humidity,HourlyPrecipIn,Conditions,Clouds,dailyrainin,SolarRadiationWatts/m^2,SoftwareType,DateUTC
2013-04-08 00:04:00,41.2,40.1,30.02,East,90,0.0,1.0,96,0.00,,,0.00,0,Wunderground v.1.15,2013-04-08 04:04:00,
2013-04-08 00:09:00,41.2,40.1,30.02,SW,214,1.0,1.0,96,0.00,,,0.00,0,Wunderground v.1.15,2013-04-08 04:09:00,
2013-04-08 00:19:00,41.1,40.0,30.02,WNW,298,1.0,3.0,96,0.00,,,0.00,0,Wunderground v.1.15,2013-04-08 04:19:00,
2013-04-08 00:24:00,41.1,40.0,30.02,ESE,113,1.0,1.0,96,0.00,,,0.00,0,Wunderground v.1.15,2013-04-08 04:24:00,
2013-04-08 00:34:00,41.1,40.0,30.02,SSW,194,0.0,1.0,96,0.00,,,0.00,0,Wunderground v.1.15,2013-04-08 04:34:00,
2013-04-08 00:39:00,41.1,40.0,30.02,WSW,252,1.0,1.0,96,0.00,,,0.00,0,Wunderground v.1.15,2013-04-08 04:39:00,
2013-04-08 00:49:00,41.1,40.0,30.02,WNW,290,0.0,0.0,96,0.00,,,0.00,0,Wunderground v.1.15,2013-04-08 04:49:00,
2013-04-08 00:59:00,40.8,39.7,30.02,SSW,208,0.0,1.0,96,0.00,,,0.00,0,Wunderground v.1.15,2013-04-08 04:59:00,
2013-04-08 01:09:00,40.5,39.4,30.02,SSW,194,0.0,0.0,96,0.00,,,0.00,0,Wunderground v.1.15,2013-04-08 05:09:00,
2013-04-08 01:14:00,40.4,39.4,30.01,West,259,0.0,2.0,96,0.00,,,0.00,0,Wunderground v.1.15,2013-04-08 05:14:00,
2013-04-08 01:19:00,40.3,39.3,30.02,West,259,0.0,2.0,96,0.00,,,0.00,0,Wunderground v.1.15,2013-04-08 05:19:00,
2013-04-08 01:24:00,40.3,39.3,30.02,West,259,0.0,0.0,96,0.00,,,0.00,0,Wunderground v.1.15,2013-04-08 05:24:00,
2013-04-08 01:29:00,40.1,39.1,30.02,West,259,0.0,0.0,96,0.00,,,0.00,0,Wunderground v.1.15,2013-04-08 05:29:00,
2013-04-08 01:34:00,40.1,39.1,30.01,West,259,0.0,0.0,96,0.00,,,0.00,0,Wunderground v.1.15,2013-04-08 05:34:00,
2013-04-08 01:44:00,39.9,38.9,30.01,WSW,252,0.0,0.0,96,0.00,,,0.00,0,Wunderground v.1.15,2013-04-08 05:44:00,
2013-04-08 01:49:00,39.8,38.8,30.01,WSW,253,0.0,0.0,96,0.00,,,0.00,0,Wunderground v.1.15,2013-04-08 05:49:00,
2013-04-08 01:59:00,39.7,38.7,30.01,WSW,253,0.0,0.0,96,0.00,,,0.00,0,Wunderground v.1.15,2013-04-08 05:59:00,
2013-04-08 02:09:00,39.5,38.5,30.00,WSW,253,0.0,0.0,96,0.00,,,0.00,0,Wunderground v.1.15,2013-04-08 06:09:00,
2013-04-08 02:19:00,39.3,38.3,30.00,WSW,252,0.0,0.0,96,0.00,,,0.00,0,Wunderground v.1.15,2013-04-08 06:19:00,
2013-04-08 02:24:00,39.2,38.2,30.00,SSE,164,0.0,0.0,96,0.00,,,0.00,0,Wunderground v.1.15,2013-04-08 06:24:00,
2013-04-08 02:34:00,39.1,38.1,30.00,SSE,164,0.0,0.0,96,0.00,,,0.00,0,Wunderground v.1.15,2013-04-08 06:34:00,
2013-04-08 02:44:00,38.9,37.9,29.99,SSE,164,0.0,0.0,96,0.00,,,0.00,0,Wunderground v.1.15,2013-04-08 06:44:00,
2013-04-08 02:49:00,38.9,37.9,30.00,SSE,164,0.0,0.0,96,0.00,,,0.00,0,Wunderground v.1.15,2013-04-08 06:49:00,
2013-04-08 02:59:00,38.8,37.8,29.99,SSE,164,0.0,0.0,96,0.00,,,0.00,0,Wunderground v.1.15,2013-04-08 06:59:00,
2013-04-08 03:04:00,38.8,38.0,29.99,SSE,164,0.0,0.0,97,0.00,,,0.00,0,Wunderground v.1.15,2013-04-08 07:04:00,
2013-04-08 03:09:00,38.9,38.1,29.99,SSE,164,0.0,0.0,97,0.00,,,0.00,0,Wunderground v.1.15,2013-04-08 07:09:00,
2013-04-08 03:19:00,39.1,38.3,29.99,SSE,164,0.0,0.0,97,0.00,,,0.00,0,Wunderground v.1.15,2013-04-08 07:19:00,
2013-04-08 03:24:00,39.1,38.3,29.99,SSE,164,0.0,0.0,97,0.00,,,0.00,0,Wunderground v.1.15,2013-04-08 07:24:00,
2013-04-08 03:29:00,39.2,38.4,29.99,SSE,164,0.0,0.0,97,0.00,,,0.00,0,Wunderground v.1.15,2013-04-08 07:29:00,
2013-04-08 03:34:00,39.3,38.5,29.99,SSE,161,0.0,1.0,97,0.00,,,0.00,0,Wunderground v.1.15,2013-04-08 07:34:00,
2013-04-08 03:49:00,39.7,38.9,29.99,SSE,161,0.0,0.0,97,0.00,,,0.00,0,Wunderground v.1.15,2013-04-08 07:49:00,
2013-04-08 03:54:00,39.8,39.3,29.99,SSE,149,0.0,0.0,98,0.00,,,0.00,0,Wunderground v.1.15,2013-04-08 07:54:00,
2013-04-08 03:59:00,39.8,39.3,29.99,SSE,149,0.0,0.0,98,0.00,,,0.00,0,Wunderground v.1.15,2013-04-08 07:59:00,
2013-04-08 04:09:00,40.0,39.5,29.99,SSE,149,0.0,0.0,98,0.00,,,0.00,0,Wunderground v.1.15,2013-04-08 08:09:00,
2013-04-08 04:14:00,40.0,39.5,29.99,SSE,149,0.0,0.0,98,0.00,,,0.00,0,Wunderground v.1.15,2013-04-08 08:14:00,
2013-04-08 04:24:00,40.2,39.7,29.99,SSE,149,0.0,0.0,98,0.00,,,0.00,0,Wunderground v.1.15,2013-04-08 08:24:00,
2013-04-08 04:34:00,40.4,39.9,30.00,SSE,149,0.0,0.0,98,0.00,,,0.00,0,Wunderground v.1.15,2013-04-08 08:34:00,
2013-04-08 04:39:00,40.5,40.0,30.00,SSE,149,0.0,0.0,98,0.00,,,0.00,0,Wunderground v.1.15,2013-04-08 08:39:00,
2013-04-08 04:44:00,40.6,40.1,30.00,SSE,149,0.0,0.0,98,0.00,,,0.00,0,Wunderground v.1.15,2013-04-08 08:44:00,
2013-04-08 04:49:00,40.6,40.1,30.00,East,82,0.0,0.0,98,0.00,,,0.00,0,Wunderground v.1.15,2013-04-08 08:49:00,
2013-04-08 04:59:00,40.7,40.2,30.00,North,350,1.0,2.0,98,0.00,,,0.00,0,Wunderground v.1.15,2013-04-08 08:59:00,
2013-04-08 05:04:00,40.7,40.2,30.01,NNW,339,2.0,2.0,98,0.00,,,0.00,0,Wunderground v.1.15,2013-04-08 09:04:00,
2013-04-08 05:14:00,40.8,40.3,30.01,NNW,340,1.0,1.0,98,0.00,,,0.00,0,Wunderground v.1.15,2013-04-08 09:14:00,
2013-04-08 05:19:00,40.9,40.1,30.01,NNW,333,1.0,1.0,97,0.00,,,0.00,0,Wunderground v.1.15,2013-04-08 09:19:00,
2013-04-08 05:24:00,40.9,40.4,30.01,NNW,333,1.0,1.0,98,0.00,,,0.00,0,Wunderground v.1.15,2013-04-08 09:24:00,
2013-04-08 05:39:00,40.9,40.1,30.01,NW,319,3.0,3.0,97,0.00,,,0.00,0,Wunderground v.1.15,2013-04-08 09:39:00,
2013-04-08 05:44:00,40.9,39.8,30.01,North,351,4.0,4.0,96,0.00,,,0.00,0,Wunderground v.1.15,2013-04-08 09:44:00,
2013-04-08 06:04:00,40.9,38.8,30.01,NNW,344,5.0,6.0,92,0.00,,,0.00,0,Wunderground v.1.15,2013-04-08 10:04:00,
2013-04-08 06:14:00,41.0,38.6,30.02,NNW,346,5.0,6.0,91,0.00,,,0.00,0,Wunderground v.1.15,2013-04-08 10:14:00,
2013-04-08 06:24:00,41.2,38.2,30.02,NW,311,4.0,7.0,89,0.00,,,0.00,5,Wunderground v.1.15,2013-04-08 10:24:00,
2013-04-08 06:29:00,41.2,37.9,30.03,NW,325,4.0,7.0,88,0.00,,,0.00,5,Wunderground v.1.15,2013-04-08 10:29:00,
2013-04-08 06:39:00,41.4,37.8,30.03,North,5,5.0,5.0,87,0.00,,,0.00,9,Wunderground v.1.15,2013-04-08 10:39:00,
2013-04-08 06:49:00,41.4,37.8,30.03,NNW,337,3.0,5.0,87,0.00,,,0.00,12,Wunderground v.1.15,2013-04-08 10:49:00,
2013-04-08 06:54:00,41.5,37.6,30.04,NNW,340,4.0,4.0,86,0.00,,,0.00,18,Wunderground v.1.15,2013-04-08 10:54:00,
2013-04-08 07:04:00,41.8,37.6,30.04,NW,323,5.0,5.0,85,0.00,,,0.00,32,Wunderground v.1.15,2013-04-08 11:04:00,
2013-04-08 07:09:00,41.9,37.7,30.04,NNW,336,4.0,5.0,85,0.00,,,0.00,42,Wunderground v.1.15,2013-04-08 11:09:00,
2013-04-08 07:19:00,42.1,37.6,30.05,North,351,3.0,7.0,84,0.00,,,0.00,60,Wunderground v.1.15,2013-04-08 11:19:00,
2013-04-08 07:29:00,42.4,37.6,30.05,North,355,4.0,7.0,83,0.00,,,0.00,86,Wunderground v.1.15,2013-04-08 11:29:00,
2013-04-08 07:39:00,42.7,37.6,30.05,NNE,13,5.0,5.0,82,0.00,,,0.00,74,Wunderground v.1.15,2013-04-08 11:39:00,
2013-04-08 07:44:00,42.9,37.5,30.05,North,355,6.0,6.0,81,0.00,,,0.00,72,Wunderground v.1.15,2013-04-08 11:44:00,
2013-04-08 07:54:00,43.0,37.3,30.05,North,355,5.0,7.0,80,0.00,,,0.00,111,Wunderground v.1.15,2013-04-08 11:54:00,
2013-04-08 07:59:00,43.1,37.3,30.05,NW,315,5.0,7.0,80,0.00,,,0.00,132,Wunderground v.1.15,2013-04-08 11:59:00,
2013-04-08 08:04:00,43.2,37.4,30.05,North,5,5.0,5.0,80,0.00,,,0.00,232,Wunderground v.1.15,2013-04-08 12:04:00,
2013-04-08 08:09:00,43.5,38.1,30.05,NNW,348,4.0,8.0,81,0.00,,,0.00,183,Wunderground v.1.15,2013-04-08 12:09:00,
2013-04-08 08:14:00,43.8,38.0,30.06,North,350,5.0,5.0,80,0.00,,,0.00,156,Wunderground v.1.15,2013-04-08 12:14:00,
2013-04-08 08:24:00,44.1,38.0,30.06,NNW,338,5.0,5.0,79,0.00,,,0.00,158,Wunderground v.1.15,2013-04-08 12:24:00,
2013-04-08 08:34:00,44.3,37.9,30.06,North,360,5.0,6.0,78,0.00,,,0.00,202,Wunderground v.1.15,2013-04-08 12:34:00,
2013-04-08 08:44:00,44.8,38.4,30.06,North,355,6.0,6.0,78,0.00,,,0.00,258,Wunderground v.1.15,2013-04-08 12:44:00,
2013-04-08 08:54:00,45.2,38.1,30.07,NNW,328,5.0,7.0,76,0.00,,,0.00,221,Wunderground v.1.15,2013-04-08 12:54:00,
2013-04-08 09:04:00,46.4,38.6,30.06,North,355,6.0,6.0,74,0.00,,,0.00,519,Wunderground v.1.15,2013-04-08 13:04:00,
2013-04-08 09:14:00,46.0,37.8,30.07,NW,311,7.0,7.0,73,0.00,,,0.00,408,Wunderground v.1.15,2013-04-08 13:14:00,
2013-04-08 09:19:00,46.7,39.2,30.07,North,5,7.0,7.0,75,0.00,,,0.00,499,Wunderground v.1.15,2013-04-08 13:19:00,
2013-04-08 09:29:00,48.0,39.4,30.08,North,355,6.0,12.0,72,0.00,,,0.00,536,Wunderground v.1.15,2013-04-08 13:29:00,
2013-04-08 09:39:00,48.1,38.8,30.08,NW,320,7.0,9.0,70,0.00,,,0.00,570,Wunderground v.1.15,2013-04-08 13:39:00,
2013-04-08 09:49:00,48.4,38.7,30.09,NNE,15,7.0,7.0,69,0.00,,,0.00,596,Wunderground v.1.15,2013-04-08 13:49:00,
2013-04-08 09:59:00,49.6,39.1,30.09,NNW,336,5.0,6.0,67,0.00,,,0.00,610,Wunderground v.1.15,2013-04-08 13:59:00,
2013-04-08 10:04:00,49.1,38.6,30.09,NNW,331,6.0,11.0,67,0.00,,,0.00,617,Wunderground v.1.15,2013-04-08 14:04:00,
2013-04-08 10:09:00,48.9,38.8,30.09,North,5,7.0,11.0,68,0.00,,,0.00,629,Wunderground v.1.15,2013-04-08 14:09:00,
2013-04-08 10:19:00,49.1,39.0,30.09,WNW,286,5.0,6.0,68,0.00,,,0.00,652,Wunderground v.1.15,2013-04-08 14:19:00,
2013-04-08 10:29:00,50.1,39.2,30.09,NNW,338,6.0,6.0,66,0.00,,,0.00,677,Wunderground v.1.15,2013-04-08 14:29:00,
2013-04-08 10:34:00,51.5,40.5,30.09,NNW,347,5.0,5.0,66,0.00,,,0.00,684,Wunderground v.1.15,2013-04-08 14:34:00,
2013-04-08 10:39:00,51.0,38.4,30.09,NNW,336,4.0,6.0,62,0.00,,,0.00,696,Wunderground v.1.15,2013-04-08 14:39:00,
2013-04-08 10:49:00,52.7,40.5,30.09,NNE,28,4.0,5.0,63,0.00,,,0.00,719,Wunderground v.1.15,2013-04-08 14:49:00,
2013-04-08 10:54:00,52.5,40.3,30.09,North,355,4.0,10.0,63,0.00,,,0.00,729,Wunderground v.1.15,2013-04-08 14:54:00,
2013-04-08 11:04:00,52.9,39.4,30.08,NW,325,6.0,6.0,60,0.00,,,0.00,745,Wunderground v.1.15,2013-04-08 15:04:00,
2013-04-08 11:09:00,52.9,39.4,30.08,West,272,5.0,6.0,60,0.00,,,0.00,751,Wunderground v.1.15,2013-04-08 15:09:00,
2013-04-08 11:14:00,54.3,40.7,30.08,SSE,150,3.0,3.0,60,0.00,,,0.00,763,Wunderground v.1.15,2013-04-08 15:14:00,
2013-04-08 11:24:00,54.9,39.9,30.08,WNW,300,4.0,10.0,57,0.00,,,0.00,780,Wunderground v.1.15,2013-04-08 15:24:00,
2013-04-08 11:29:00,54.6,39.2,30.08,NNW,342,5.0,10.0,56,0.00,,,0.00,789,Wunderground v.1.15,2013-04-08 15:29:00,
2013-04-08 11:39:00,55.7,38.8,30.08,North,360,3.0,6.0,53,0.00,,,0.00,802,Wunderground v.1.15,2013-04-08 15:39:00,
2013-04-08 11:44:00,55.7,39.8,30.08,NNW,345,4.0,12.0,55,0.00,,,0.00,812,Wunderground v.1.15,2013-04-08 15:44:00,
2013-04-08 11:49:00,56.0,40.1,30.08,North,5,5.0,12.0,55,0.00,,,0.00,812,Wunderground v.1.15,2013-04-08 15:49:00,
2013-04-08 11:54:00,56.6,39.7,30.08,WNW,293,5.0,5.0,53,0.00,,,0.00,819,Wunderground v.1.15,2013-04-08 15:54:00,
2013-04-08 12:09:00,57.6,39.6,30.08,West,275,4.0,5.0,51,0.00,,,0.00,835,Wunderground v.1.15,2013-04-08 16:09:00,
2013-04-08 12:14:00,56.7,39.3,30.08,North,360,3.0,3.0,52,0.00,,,0.00,837,Wunderground v.1.15,2013-04-08 16:14:00,
2013-04-08 12:24:00,58.1,39.5,30.09,NW,309,5.0,5.0,50,0.00,,,0.00,844,Wunderground v.1.15,2013-04-08 16:24:00,
2013-04-08 12:29:00,58.2,40.6,30.09,North,360,5.0,5.0,52,0.00,,,0.00,847,Wunderground v.1.15,2013-04-08 16:29:00,
2013-04-08 12:34:00,57.9,37.8,30.09,NW,315,3.0,3.0,47,0.00,,,0.00,851,Wunderground v.1.15,2013-04-08 16:34:00,
2013-04-08 12:39:00,59.1,40.5,30.09,WNW,288,3.0,5.0,50,0.00,,,0.00,854,Wunderground v.1.15,2013-04-08 16:39:00,
2013-04-08 12:49:00,59.4,39.7,30.09,North,11,4.0,8.0,48,0.00,,,0.00,860,Wunderground v.1.15,2013-04-08 16:49:00,
2013-04-08 12:54:00,58.9,38.7,30.09,SSW,203,4.0,4.0,47,0.00,,,0.00,863,Wunderground v.1.15,2013-04-08 16:54:00,
2013-04-08 13:04:00,57.8,37.7,30.09,NNE,23,4.0,4.0,47,0.00,,,0.00,865,Wunderground v.1.15,2013-04-08 17:04:00,
2013-04-08 13:14:00,59.5,39.2,30.09,West,267,3.0,6.0,47,0.00,,,0.00,858,Wunderground v.1.15,2013-04-08 17:14:00,
2013-04-08 13:19:00,58.8,38.6,30.09,NNE,33,4.0,6.0,47,0.00,,,0.00,858,Wunderground v.1.15,2013-04-08 17:19:00,
2013-04-08 13:24:00,59.2,39.0,30.09,SE,136,4.0,4.0,47,0.00,,,0.00,856,Wunderground v.1.15,2013-04-08 17:24:00,
2013-04-08 13:29:00,58.9,38.1,30.08,NNE,30,4.0,4.0,46,0.00,,,0.00,854,Wunderground v.1.15,2013-04-08 17:29:00,
2013-04-08 13:39:00,60.0,38.6,30.08,NNW,341,3.0,6.0,45,0.00,,,0.00,851,Wunderground v.1.15,2013-04-08 17:39:00,
2013-04-08 13:44:00,59.9,38.5,30.08,NE,55,3.0,3.0,45,0.00,,,0.00,847,Wunderground v.1.15,2013-04-08 17:44:00,
2013-04-08 13:54:00,60.3,38.3,30.08,NNW,345,5.0,7.0,44,0.00,,,0.00,831,Wunderground v.1.15,2013-04-08 17:54:00,
2013-04-08 13:59:00,59.9,39.1,30.08,SSE,150,4.0,7.0,46,0.00,,,0.00,831,Wunderground v.1.15,2013-04-08 17:59:00,
2013-04-08 14:04:00,59.8,37.8,30.08,SSE,153,3.0,3.0,44,0.00,,,0.00,821,Wunderground v.1.15,2013-04-08 18:04:00,
2013-04-08 14:14:00,60.5,37.3,30.08,NNE,13,4.0,4.0,42,0.00,,,0.00,819,Wunderground v.1.15,2013-04-08 18:14:00,
2013-04-08 14:19:00,61.3,38.6,30.07,NE,55,5.0,5.0,43,0.00,,,0.00,802,Wunderground v.1.15,2013-04-08 18:19:00,
2013-04-08 14:29:00,61.2,37.9,30.07,East,101,2.0,5.0,42,0.00,,,0.00,784,Wunderground v.1.15,2013-04-08 18:29:00,
2013-04-08 14:34:00,61.5,38.2,30.07,NE,36,2.0,2.0,42,0.00,,,0.00,798,Wunderground v.1.15,2013-04-08 18:34:00,
2013-04-08 14:39:00,62.1,38.7,30.07,NNE,22,1.0,4.0,42,0.00,,,0.00,772,Wunderground v.1.15,2013-04-08 18:39:00,
2013-04-08 14:44:00,61.4,38.1,30.07,North,5,2.0,4.0,42,0.00,,,0.00,775,Wunderground v.1.15,2013-04-08 18:44:00,
2013-04-08 14:49:00,62.0,37.4,30.07,North,355,3.0,4.0,40,0.00,,,0.00,698,Wunderground v.1.15,2013-04-08 18:49:00,
2013-04-08 14:59:00,61.2,37.3,30.07,North,355,2.0,5.0,41,0.00,,,0.00,621,Wunderground v.1.15,2013-04-08 18:59:00,
2013-04-08 15:09:00,62.7,38.6,30.06,NNE,22,4.0,10.0,41,0.00,,,0.00,687,Wunderground v.1.15,2013-04-08 19:09:00,
2013-04-08 15:14:00,62.3,38.3,30.06,SE,131,3.0,3.0,41,0.00,,,0.00,374,Wunderground v.1.15,2013-04-08 19:14:00,
2013-04-08 15:19:00,62.0,37.4,30.06,NNW,346,3.0,3.0,40,0.00,,,0.00,737,Wunderground v.1.15,2013-04-08 19:19:00,
2013-04-08 15:24:00,62.5,39.7,30.06,North,360,3.0,4.0,43,0.00,,,0.00,717,Wunderground v.1.15,2013-04-08 19:24:00,
2013-04-08 15:34:00,61.8,37.2,30.06,North,355,3.0,3.0,40,0.00,,,0.00,506,Wunderground v.1.15,2013-04-08 19:34:00,
2013-04-08 15:39:00,61.7,37.1,30.06,SSW,192,2.0,4.0,40,0.00,,,0.00,540,Wunderground v.1.15,2013-04-08 19:39:00,
2013-04-08 15:44:00,61.6,37.7,30.05,South,183,3.0,3.0,41,0.00,,,0.00,545,Wunderground v.1.15,2013-04-08 19:44:00,
2013-04-08 15:54:00,61.7,37.1,30.05,SE,126,2.0,3.0,40,0.00,,,0.00,431,Wunderground v.1.15,2013-04-08 19:54:00,
2013-04-08 15:59:00,61.7,37.1,30.05,East,86,2.0,3.0,40,0.00,,,0.00,506,Wunderground v.1.15,2013-04-08 19:59:00,
2013-04-08 16:04:00,61.7,37.7,30.05,NNE,13,3.0,3.0,41,0.00,,,0.00,497,Wunderground v.1.15,2013-04-08 20:04:00,
2013-04-08 16:09:00,61.9,37.9,30.05,WNW,302,3.0,3.0,41,0.00,,,0.00,571,Wunderground v.1.15,2013-04-08 20:09:00,
2013-04-08 16:19:00,61.8,37.8,30.05,North,355,3.0,5.0,41,0.00,,,0.00,327,Wunderground v.1.15,2013-04-08 20:19:00,
2013-04-08 16:29:00,61.7,37.7,30.05,WNW,288,1.0,6.0,41,0.00,,,0.00,239,Wunderground v.1.15,2013-04-08 20:29:00,
2013-04-08 16:34:00,61.5,38.2,30.05,NE,40,2.0,2.0,42,0.00,,,0.00,155,Wunderground v.1.15,2013-04-08 20:34:00,
2013-04-08 16:39:00,61.6,38.3,30.05,NNE,15,3.0,3.0,42,0.00,,,0.00,209,Wunderground v.1.15,2013-04-08 20:39:00,
2013-04-08 16:49:00,61.6,38.3,30.05,NNW,344,3.0,10.0,42,0.00,,,0.00,148,Wunderground v.1.15,2013-04-08 20:49:00,
2013-04-08 16:54:00,61.2,37.3,30.05,West,275,4.0,4.0,41,0.00,,,0.00,95,Wunderground v.1.15,2013-04-08 20:54:00,
2013-04-08 16:59:00,60.9,37.6,30.05,NW,313,3.0,4.0,42,0.00,,,0.00,113,Wunderground v.1.15,2013-04-08 20:59:00,
2013-04-08 17:04:00,61.0,38.3,30.05,North,355,2.0,2.0,43,0.00,,,0.00,132,Wunderground v.1.15,2013-04-08 21:04:00,
2013-04-08 17:14:00,61.3,38.0,30.05,South,188,1.0,1.0,42,0.00,,,0.00,107,Wunderground v.1.15,2013-04-08 21:14:00,
2013-04-08 17:19:00,61.5,38.2,30.04,SSW,198,1.0,3.0,42,0.00,,,0.00,98,Wunderground v.1.15,2013-04-08 21:19:00,
2013-04-08 19:09:00,59.0,37.7,30.04,SSE,160,0.0,0.0,45,0.00,,,0.00,9,Wunderground v.1.15,2013-04-08 23:09:00,
2013-04-08 19:14:00,58.6,37.3,30.04,SSE,160,0.0,0.0,45,0.00,,,0.00,5,Wunderground v.1.15,2013-04-08 23:14:00,
2013-04-08 19:24:00,58.6,37.3,30.04,SSE,160,0.0,0.0,45,0.00,,,0.00,0,Wunderground v.1.15,2013-04-08 23:24:00,
2013-04-08 19:34:00,58.4,37.1,30.05,SSE,160,0.0,1.0,45,0.00,,,0.00,0,Wunderground v.1.15,2013-04-08 23:34:00,
2013-04-08 19:39:00,58.3,37.6,30.05,SSE,160,0.0,1.0,46,0.00,,,0.00,0,Wunderground v.1.15,2013-04-08 23:39:00,
2013-04-08 19:44:00,58.2,37.5,30.05,SSE,160,0.0,1.0,46,0.00,,,0.00,0,Wunderground v.1.15,2013-04-08 23:44:00,
2013-04-08 19:54:00,57.6,38.0,30.05,SSE,160,1.0,1.0,48,0.00,,,0.00,0,Wunderground v.1.15,2013-04-08 23:54:00,
2013-04-08 19:59:00,57.1,38.1,30.05,SSE,160,0.0,0.0,49,0.00,,,0.00,0,Wunderground v.1.15,2013-04-08 23:59:00,
2013-04-08 20:09:00,56.6,38.2,30.06,SSE,160,1.0,2.0,50,0.00,,,0.00,0,Wunderground v.1.15,2013-04-09 00:09:00,
2013-04-08 20:19:00,56.3,38.9,30.06,South,182,2.0,3.0,52,0.00,,,0.00,0,Wunderground v.1.15,2013-04-09 00:19:00,
2013-04-08 20:24:00,55.9,39.5,30.06,South,176,2.0,2.0,54,0.00,,,0.00,0,Wunderground v.1.15,2013-04-09 00:24:00,
2013-04-08 20:29:00,55.9,40.0,30.06,SSE,166,2.0,2.0,55,0.00,,,0.00,0,Wunderground v.1.15,2013-04-09 00:29:00,
2013-04-08 20:39:00,55.5,40.5,30.06,South,188,1.0,1.0,57,0.00,,,0.00,0,Wunderground v.1.15,2013-04-09 00:39:00,
2013-04-08 20:44:00,55.5,40.5,30.06,South,177,1.0,1.0,57,0.00,,,0.00,0,Wunderground v.1.15,2013-04-09 00:44:00,
2013-04-08 20:54:00,55.4,40.4,30.06,SSE,159,0.0,0.0,57,0.00,,,0.00,0,Wunderground v.1.15,2013-04-09 00:54:00,
2013-04-08 20:59:00,55.3,40.3,30.06,SSE,159,0.0,1.0,57,0.00,,,0.00,0,Wunderground v.1.15,2013-04-09 00:59:00,
2013-04-08 21:04:00,55.5,40.5,30.06,South,179,1.0,1.0,57,0.00,,,0.00,0,Wunderground v.1.15,2013-04-09 01:04:00,
2013-04-08 21:14:00,55.5,40.5,30.06,South,178,1.0,1.0,57,0.00,,,0.00,0,Wunderground v.1.15,2013-04-09 01:14:00,
2013-04-08 21:19:00,55.4,40.4,30.07,South,178,1.0,2.0,57,0.00,,,0.00,0,Wunderground v.1.15,2013-04-09 01:19:00,
2013-04-08 21:24:00,55.5,40.5,30.07,South,178,1.0,1.0,57,0.00,,,0.00,0,Wunderground v.1.15,2013-04-09 01:24:00,
2013-04-08 21:34:00,55.4,40.9,30.07,South,178,1.0,1.0,58,0.00,,,0.00,0,Wunderground v.1.15,2013-04-09 01:34:00,
2013-04-08 21:39:00,55.4,41.3,30.06,SSE,150,1.0,1.0,59,0.00,,,0.00,0,Wunderground v.1.15,2013-04-09 01:39:00,
2013-04-08 21:49:00,55.1,41.0,30.06,SSE,159,1.0,1.0,59,0.00,,,0.00,0,Wunderground v.1.15,2013-04-09 01:49:00,
2013-04-08 21:59:00,54.6,41.4,30.06,South,182,2.0,5.0,61,0.00,,,0.00,0,Wunderground v.1.15,2013-04-09 01:59:00,
2013-04-08 22:04:00,54.4,41.6,30.05,SSE,151,2.0,2.0,62,0.00,,,0.00,0,Wunderground v.1.15,2013-04-09 02:04:00,
2013-04-08 22:09:00,54.3,42.0,30.05,SW,222,2.0,2.0,63,0.00,,,0.00,0,Wunderground v.1.15,2013-04-09 02:09:00,
2013-04-08 22:19:00,54.1,41.8,30.05,SSE,163,1.0,2.0,63,0.00,,,0.00,0,Wunderground v.1.15,2013-04-09 02:19:00,
2013-04-08 22:29:00,53.9,42.0,30.05,South,178,0.0,2.0,64,0.00,,,0.00,0,Wunderground v.1.15,2013-04-09 02:29:00,
2013-04-08 22:34:00,53.8,42.3,30.05,South,177,1.0,3.0,65,0.00,,,0.00,0,Wunderground v.1.15,2013-04-09 02:34:00,
2013-04-08 22:39:00,53.7,42.2,30.05,South,178,2.0,3.0,65,0.00,,,0.00,0,Wunderground v.1.15,2013-04-09 02:39:00,
2013-04-08 22:44:00,53.6,42.1,30.05,South,178,2.0,2.0,65,0.00,,,0.00,0,Wunderground v.1.15,2013-04-09 02:44:00,
2013-04-08 22:54:00,53.3,42.6,30.04,South,169,3.0,3.0,67,0.00,,,0.00,0,Wunderground v.1.15,2013-04-09 02:54:00,
2013-04-08 23:04:00,53.0,42.3,30.04,South,178,3.0,3.0,67,0.00,,,0.00,0,Wunderground v.1.15,2013-04-09 03:04:00,
2013-04-08 23:09:00,53.0,42.3,30.04,SSE,150,3.0,4.0,67,0.00,,,0.00,0,Wunderground v.1.15,2013-04-09 03:09:00,
2013-04-08 23:14:00,53.0,42.3,30.04,SSE,148,3.0,3.0,67,0.00,,,0.00,0,Wunderground v.1.15,2013-04-09 03:14:00,
2013-04-08 23:34:00,53.0,42.3,30.03,South,169,4.0,4.0,67,0.00,,,0.00,0,Wunderground v.1.15,2013-04-09 03:34:00,
2013-04-08 23:39:00,53.1,42.0,30.03,SSE,157,4.0,4.0,66,0.00,,,0.00,0,Wunderground v.1.15,2013-04-09 03:39:00,
2013-04-08 23:49:00,53.1,42.0,30.02,SE,135,3.0,6.0,66,0.00,,,0.00,0,Wunderground v.1.15,2013-04-09 03:49:00,
2013-04-08 23:54:00,53.1,42.0,30.02,SE,146,4.0,5.0,66,0.00,,,0.00,0,Wunderground v.1.15,2013-04-09 03:54:00,
2013-04-08 23:59:00,53.1,42.0,30.02,SSW,195,3.0,5.0,66,0.00,,,0.00,0,Wunderground v.1.15,2013-04-09 03:59:00,